Voltar ao catálogo

NOAA 16 DEB

AtivoPO
NORAD 41258·DEBRIS·🇺🇸 United States

Lançado Sep 21, 2000 de Vandenberg Space Force Base

Loading…

Próximas Passagens (próximas 24 horas)

TLE

AtualizadoSource: Space-Track

Época: Sep 13, 2026, 17:12 UTC

1 41258U 00055FJ  26256.71733200  .00007173  00000-0  13632-2 0  9999
2 41258  98.9721 169.7953 0035633 135.3587 225.0492 14.64085935559514

Acompanhe NOAA 16 DEB em tempo real com AllMySat

Download on the App Store